This demonstration page uses our WeatherBlox Daily Observations layout. Learn more.

Left ArrowRight Arrow

30.21309, -93.2044

Hourly Observations for July 19, 2019

Temp ( °F °C ) Dew Point ( °F °C ) Humidity (%) Winds ( mph kmh ) Pressure ( in mb ) Visibility ( mi km ) Precip ( " mm )
12:15 am 00:15 Partly Cloudy 78 25.8 77 25 95 95 E 7 11 30.03 1017 10 16 0.00 0.00
12:35 am 00:35 Partly Cloudy 79 26.3 77 25.1 93 93 ESE 7 11 30.02 1017 10 16 0.00 0.00
12:55 am 00:55 Clear 78 25.6 77 24.8 95 95 ESE 7 11 30.02 1017 10 16 0.00 0.00
1:15 am 01:15 Clear 78 25.5 77 24.8 96 96 ESE 8 13 30.02 1017 10 16 0.00 0.00
1:35 am 01:35 Clear 78 25.3 76 24.7 96 96 SE 3 6 30.02 1017 10 16 0.00 0.00
1:55 am 01:55 Clear 78 25.5 77 25 97 97 E 7 11 30.02 1017 10 16 0.00 0.00
2:15 am 02:15 Clear 78 25.5 77 24.9 96 96 ESE 3 6 30.02 1017 10 16 0.00 0.00
2:35 am 02:35 Clear 77 25.2 76 24.6 96 96 Calm 30.01 1016 10 16 0.00 0.00
2:55 am 02:55 Clear 77 24.8 76 24.5 98 98 ESE 7 11 30.01 1016 10 16 0.00 0.00
3:15 am 03:15 Clear 77 24.8 76 24.3 97 97 SE 3 6 30.00 1016 10 16 0.00 0.00
3:35 am 03:35 Clear 77 24.8 76 24.4 98 98 SE 3 6 30.00 1016 7 11 0.00 0.00
3:55 am 03:55 Clear 77 25 76 24.5 97 97 Calm 30.00 1016 7 11 0.00 0.00
4:15 am 04:15 Clear 76 24.6 76 24.2 98 98 SSE 3 6 30.00 1016 7 11 0.00 0.00
4:35 am 04:35 Clear 76 24.7 76 24.3 98 98 SE 5 7 30.00 1016 10 16 0.00 0.00
4:55 am 04:55 Clear 76 24.7 76 24.3 98 98 ESE 6 9 30.00 1016 10 16 0.00 0.00
5:15 am 05:15 Clear 77 25.1 76 24.5 96 96 ESE 6 9 30.00 1016 10 16 0.00 0.00
5:35 am 05:35 Clear 76 24.7 75 24.1 96 96 SE 3 6 30.00 1016 10 16 0.00 0.00
6:00 am 06:00 Mostly Clear 77 25 75 24 94 94 Calm 30.01 1016 10 16 0.00 0.00
6:47 am 06:47 Mostly Sunny 77 25 75 24 94 94 Calm 30.02 1017 7 11 0.00 0.00
7:46 am 07:46 Mostly Sunny 81 27 77 25 89 89 Calm 30.04 1017 7 11 0.00 0.00
8:55 am 08:55 Partly Cloudy 86 30 79 26 79 79 S 3 6 30.06 1018 7 11 0.00 0.00
9:50 am 09:50 Mostly Cloudy 88 31 77 25 70 70 S 8 13 30.06 1018 10 16 0.00 0.00
10:55 am 10:55 Mostly Cloudy 90 32 77 25 67 67 S 7 11 30.07 1018 10 16 0.00 0.00
11:55 am 11:55 Mostly Cloudy 90 32 75 24 63 63 undefined N/A 30.07 1018 10 16 0.00 0.00
12:55 pm 12:55 Partly Cloudy 91 33 73 23 56 56 S 9 15 30.07 1018 10 16 0.00 0.00
3:55 pm 15:55 Partly Cloudy 93 34 73 23 53 53 S 10 17 30.02 1017 10 16 0.00 0.00
4:50 pm 16:50 Partly Cloudy 90 32 73 23 59 59 S 8 13 30.00 1016 10 16 0.00 0.00
5:50 pm 17:50 Partly Cloudy 88 31 75 24 66 66 SW 10 17 29.99 1016 10 16 0.00 0.00
6:50 pm 18:50 Partly Cloudy 86 30 77 25 75 75 S 8 13 29.99 1016 10 16 0.00 0.00
7:55 pm 19:55 Partly Cloudy 84 29 77 25 79 79 S 7 11 30.00 1016 10 16 0.00 0.00
8:50 pm 20:50 Mostly Clear 82 28 77 25 84 84 ESE 7 11 30.01 1016 10 16 0.00 0.00
9:50 pm 21:50 Mostly Clear 79 26 77 25 94 94 ESE 7 11 30.02 1017 10 16 0.00 0.00
10:15 pm 22:15 Clear 80 26.4 77 25.2 93 93 ESE 7 11 30.01 1016 10 16 0.00 0.00
10:35 pm 22:35 Clear 80 26.4 77 25.1 93 93 ESE 8 13 30.01 1016 10 16 0.00 0.00
10:55 pm 22:55 Clear 78 25.8 77 25 95 95 SE 6 9 30.01 1016 10 16 0.00 0.00
11:15 pm 23:15 Clear 78 25.6 77 25 97 97 ESE 7 11 30.01 1016 10 16 0.00 0.00
11:35 pm 23:35 Clear 78 25.6 77 24.8 95 95 E 8 13 30.01 1016 10 16 0.00 0.00
11:55 pm 23:55 Clear 78 25.5 76 24.7 95 95 SE 5 7 30.01 1016 10 16 0.00 0.00

Powered by AerisWeather